This is the latest recevied weather packets stored in our database for station/object KC3ROS. If no packets are shown the sender has not sent any weather packets the latest 1 day(s).
| Time | Temp. | Humidity | Pressure | Rain* | Wind** | Luminosity | Snow |
|---|---|---|---|---|---|---|---|
| 1778034364 | 16.67° C | 82% | 1007.1 hPa | 0 mm | - | 0 W/m² | - |
| 1778034061 | 16.67° C | 80% | 1007.2 hPa | 0 mm | - | 0 W/m² | - |
| 1778033759 | 17.78° C | 75% | 1007 hPa | 0 mm | - | 0 W/m² | - |
| 1778033456 | 18.33° C | 70% | 1006.9 hPa | 0 mm | - | 0 W/m² | - |
| 1778033154 | 18.89° C | 65% | 1006.8 hPa | 0 mm | - | 0 W/m² | - |
| 1778032245 | 18.89° C | 59% | 1006.6 hPa | 0 mm | - | 0 W/m² | - |
| 1778031943 | 19.44° C | 59% | 1006.6 hPa | 0 mm | - | 0 W/m² | - |
| 1778031638 | 19.44° C | 59% | 1006.7 hPa | 0 mm | - | 0 W/m² | - |
| 1778031337 | 19.44° C | 59% | 1006.6 hPa | 0 mm | - | 0 W/m² | - |
| 1778031033 | 19.44° C | 58% | 1006.5 hPa | 0 mm | - | 0 W/m² | - |
| 1778030729 | 19.44° C | 59% | 1006.5 hPa | 0 mm | - | 0 W/m² | - |
| 1778030124 | 19.44° C | 58% | 1006.5 hPa | 0 mm | - | 0 W/m² | - |
| 1778029514 | 19.44° C | 58% | 1006.4 hPa | 0 mm | - | 0 W/m² | - |
| 1778029210 | 19.44° C | 58% | 1006.6 hPa | 0 mm | - | 0 W/m² | - |
| 1778027996 | 20° C | 58% | 1006.4 hPa | 0 mm | - | 0 W/m² | - |
| 1778027693 | 20° C | 57% | 1006.3 hPa | 0 mm | - | 0 W/m² | - |
| 1778027389 | 20° C | 58% | 1006.3 hPa | 0 mm | - | 1 W/m² | - |
| 1778026781 | 20° C | 57% | 1006.5 hPa | 0 mm | - | 1 W/m² | - |
| 1778026478 | 20° C | 59% | 1006.7 hPa | 0 mm | - | 2 W/m² | - |
| 1778025873 | 20° C | 58% | 1006.9 hPa | 0 mm | - | 5 W/m² | - |
| 1778024662 | 20.56° C | 58% | 1006.3 hPa | 0 mm | - | 13 W/m² | - |
| 1778021937 | 20.56° C | 58% | 1006.4 hPa | 0 mm | - | 60 W/m² | - |
| 1778020724 | 20.56° C | 58% | 1006.6 hPa | 0 mm | - | 76 W/m² | - |
| 1778020421 | 20.56° C | 59% | 1006.5 hPa | 0 mm | - | 75 W/m² | - |
| 1778019207 | 21.11° C | 58% | 1006.6 hPa | 0 mm | - | 75 W/m² | - |
* Rain latest hour (hover to see other rain measurements)
** Current wind speed in m/s (hover to see current wind gust speed)